Chicago Midway, IL

8:47 PM CST on December 13, 2019 (GMT -0600)
Chicago-Midway

Weather History for KMDW - November, 2019

Change the Weather History Date:

Sunday, November 17, 2019

  Actual Average Record
Temperature  
Mean Temperature 36 °F 41 °F  
Max Temperature 42 °F 48 °F 74 °F (1975)
Min Temperature 29 °F 34 °F 3 °F (1959)
Degree Days  
Heating Degree Days 29 24  
Month to date heating degree days 536 346  
Since 1 July heating degree days 927 777  
Cooling Degree Days 0 0  
Month to date cooling degree days 0 0  
Year to date cooling degree days 1131 1045  
Moisture  
Dew Point 29 °F    
Average Humidity 77    
Maximum Humidity 93    
Minimum Humidity 51    
Precipitation  
Precipitation T in 0.11 in 1.26 in (1928)
Month to date precipitation 0.15 1.96  
Year to date precipitation 42.97 35.06  
Sea Level Pressure  
Sea Level Pressure 30.00 in    
Wind  
Wind Speed 7 mph (South)    
Max Wind Speed 13 mph    
Max Gust Speed 25 mph    
Visibility 9 miles    
Events Rain    
T = Trace of Precipitation, MM = Missing Value Source: NWS Daily Summary

Daily Weather History Graph

Daily Weather History Graph

Search for Another Location

Airport or City:

Astronomy

Nov. 17, 2019 Rise Set
Actual Time 6:42 AM CST 4:28 PM CST
Civil Twilight 6:12 AM CST 4:58 PM CST
Nautical Twilight 5:38 AM CST 5:32 PM CST
Astronomical Twilight 5:05 AM CST 6:05 PM CST
Moon 9:04 PM CST (11/17) 11:29 AM CST (11/17)
Length of Visible Light 10h 46m
Length of Day
9h 46m
Waning Gibbous, 73% of the Moon is Illuminated
Nov 17
Waning Gibbous
Nov 19
Last Quarter
Nov 26
New
Dec 4
First Quarter
Dec 11
Full

Hourly Weather History & Observations

Time (CST) Temp. Windchill Dew Point Humidity Pressure Visibility Wind Dir Wind Speed Gust Speed Precip Events Conditions
12:53 AM 30.9 °F 24.3 °F 24.1 °F 76% 30.23 in 10.0 mi South 6.9 mph - N/A   Mostly Cloudy
1:53 AM 30.0 °F 25.2 °F 24.1 °F 79% 30.21 in 10.0 mi SE 4.6 mph - N/A   Mostly Cloudy
2:53 AM 30.0 °F 23.2 °F 24.1 °F 79% 30.19 in 10.0 mi SSE 6.9 mph - N/A   Mostly Cloudy
3:53 AM 28.9 °F 22.8 °F 24.1 °F 82% 30.17 in 10.0 mi SE 5.8 mph - N/A   Mostly Cloudy
4:53 AM 28.9 °F 22.8 °F 24.1 °F 82% 30.17 in 10.0 mi SSE 5.8 mph - N/A   Mostly Cloudy
5:53 AM 28.9 °F 22.8 °F 24.1 °F 82% 30.14 in 10.0 mi SE 5.8 mph - N/A   Mostly Cloudy
6:53 AM 28.9 °F 23.9 °F 24.1 °F 82% 30.12 in 10.0 mi SSE 4.6 mph - N/A   Mostly Cloudy
7:53 AM 30.0 °F 24.1 °F 25.0 °F 82% 30.11 in 10.0 mi SSE 5.8 mph - N/A   Mostly Cloudy
8:53 AM 32.0 °F 24.2 °F 26.1 °F 79% 30.06 in 9.0 mi SE 9.2 mph 25.3 mph N/A   Overcast
9:53 AM 35.1 °F 28.6 °F 28.0 °F 76% 30.07 in 10.0 mi SSW 8.1 mph - N/A   Overcast
10:53 AM 36.0 °F 30.3 °F 28.0 °F 73% 30.04 in 10.0 mi SSW 6.9 mph - N/A   Overcast
11:53 AM 37.9 °F 33.5 °F 28.9 °F 70% 30.01 in 10.0 mi South 5.8 mph - N/A   Overcast
12:53 PM 39.0 °F 32.8 °F 28.9 °F 67% 29.97 in 10.0 mi South 9.2 mph - N/A   Overcast
1:53 PM 41.0 °F 36.4 °F 30.0 °F 65% 29.94 in 10.0 mi South 6.9 mph - N/A   Overcast
2:53 PM 42.1 °F 37.7 °F 30.0 °F 62% 29.93 in 10.0 mi South 6.9 mph - N/A   Overcast
3:53 PM 41.0 °F 35.2 °F 30.0 °F 65% 29.92 in 10.0 mi South 9.2 mph - N/A   Overcast
4:53 PM 39.0 °F 33.4 °F 30.9 °F 73% 29.90 in 10.0 mi SSE 8.1 mph - N/A   Overcast
5:53 PM 39.0 °F 34.8 °F 32.0 °F 76% 29.91 in 10.0 mi Variable 5.8 mph - N/A   Overcast
6:53 PM 39.0 °F 33.4 °F 32.0 °F 76% 29.92 in 9.0 mi SSW 8.1 mph - 0.00 in   Overcast
7:53 PM 39.0 °F 34.0 °F 32.0 °F 76% 29.90 in 9.0 mi South 6.9 mph - N/A   Overcast
8:53 PM 37.9 °F 33.5 °F 33.1 °F 83% 29.88 in 6.0 mi SSW 5.8 mph - 0.00 in Rain Light Rain
9:53 PM 37.9 °F 34.4 °F 34.0 °F 86% 29.87 in 5.0 mi SSW 4.6 mph - 0.00 in Rain Light Rain
10:05 PM 37.9 °F 34.4 °F 34.0 °F 86% 29.84 in 5.0 mi SW 4.6 mph - 0.00 in Rain Light Rain
10:11 PM 37.9 °F 33.5 °F 34.0 °F 86% 29.84 in 5.0 mi South 5.8 mph - 0.00 in Rain Light Rain
10:53 PM 37.9 °F 34.4 °F 35.1 °F 89% 29.86 in 5.0 mi SSW 4.6 mph - 0.00 in   Light Drizzle
11:53 PM 37.9 °F 35.5 °F 36.0 °F 93% 29.83 in 4.0 mi SSW 3.5 mph - 0.00 in   Light Drizzle